CZ-4 DEB, 26196

Orbit data source: Space-Track

CZ-4 DEB, 26196 is space debris in SSO originally from a launch on Thu, 14 Oct 1999 UTC launched from the Taiyaun Space Center, China (TSC). Debris objects in space refer to the collection of defunct objects orbiting the Earth. Examples of debris include non-operational satellites, rocket bodies, and fragments generated from explosions, collisions, or faulty payload assembly.

Loading next visibility...
Identifier
26196, 1999-057CJ
Orbit
SSO
Country
Flag of CNCN / PRC
Related business
Manufacturer
Unknown
Mission
Spacecraft
Bus & Motor
Unknown
Mass
Unknown
Launch date (UTC)
1999-10-14 (26 years ago)
Launch vehicle
Unknown
Launch site
Taiyaun Space Center, China (TSC)
Object type
Payload
Rocket body
Debris
Shape & HBR
Unknown shape, 0.1 m
Radar Cross Section
Small (<0.1 m²)

Expand to show TLE details & history
Last TLE update: 5 hours ago

TLE from 5 hours ago
0 CZ-4 DEB
1 26196U 99057CJ  25293.20142666  .00000817  00000-0  55141-3 0  9997
2 26196  98.9074 198.5786 0337630 119.0428  35.0024 13.78573160283956
Epoch: 2025-10-20T04:50Z
TLE epoch observation values (Epoch: 2025-10-20T04:50:03.263Z)
Latitude
23.37708°
Longitude
-78.97835°
Altitude
771.37 km
Speed
7.572 km/s
True Right ascension
01h 29m 46s
True Declination
23° 15' 08"
Sunlit
Object was in full shadow at epoch
Visualization orbit readout
Latitude
Unknown
Longitude
Unknown
Altitude
Unknown
Speed
Unknown
Apparent Right ascension
Unknown
Apparent Declination
Unknown
Sunlit
N/A
Visualization observer readout
Local Sidereal Time
05:11:53
Azimuth
Unknown
Elevation
Unknown
Doppler factor
Unknown
Orbital elements
Apogee altitude
1,214.137 km
Perigee altitude
718.205 km
Semi-major axis
7,344.308 km
Eccentricity
0.03376
Inclination
98.9074°
RAAN
198.5786°
Arg. of periapsis
119.0428°
True anomaly
37.3004°
Mean anomaly
35.0024°
Eccentric anomaly
36.14337°
Mean motion
3.44839 °/min
Orbital period
104.4 mins
BSTAR
0.00055141
Loading maneuver chart data...
Computing Atmospheric mass density...

Documentation

Showing up to 5 results
|